Location: Adavinekkalam
(16.6301°N, 80.7229°E)
Time: 20:51:05
(UTC+00:00)

Longmarch 3A Rocket - Pass Details

Date: 15 May 2026
Orbit: 263 x 18563 km, 27.3° (Epoch: 8 June)

Event Time Altitude Azimuth Distance (km) Brightness Sun altitude
Rises 14:53:57 0° 278° (W) 7,061 8.5 -25.4°
Reaches altitude 10° 15:01:45 10° 291° (WNW) 3,785 7.0 -26.9°
Maximum altitude 15:07:35 21° 339° (NNW) 1,516 4.5 -28.1°
Enters shadow 15:08:48 19° 6° (N) 1,373 4.1 -28.4°
